AirNav   Everest Fuels
 
 1168 users online  

F69 Air Park-Dallas Airport
Dallas, Texas, USA

GOING TO DALLAS?


FAA INFORMATION EFFECTIVE 19 MAY 2022

Location

FAA Identifier: F69
Lat/Long: 33-01-24.4370N 096-50-13.0060W
33-01.407283N 096-50.216767W
33.0234547,-96.8369461
(estimated)
Elevation: 695 ft. / 212 m (estimated)
Variation: 07E (1985)
From city: 16 miles NE of DALLAS, TX
Time zone: UTC -5 (UTC -6 during Standard Time)
Zip code: 75093

Airport Operations

Airport use: Open to the public
Control tower: no
ARTCC: FORT WORTH CENTER
FSS: FORT WORTH FLIGHT SERVICE STATION
NOTAMs facility: FTW (NOTAM-D service available)
Attendance: UNATNDD
Wind indicator: yes
Segmented circle: no

Airport Communications

CTAF: 122.9
WX AWOS-3PT at ADS (3 nm S): PHONE 972-386-4855
WX ASOS at DAL (11 nm S): PHONE 214-353-1551
WX ASOS at DFW (13 nm SW): PHONE 972-615-2608
WX AWOS-3 at 49T (15 nm S): 135.425 (214-670-1243)
WX ASOS at TKI (16 nm NE): PHONE 972-548-8525
  • ARPT INSIDE ADDISON CLASS D AIRSPACE. CTC ADDISON TOWER 126.0 (0600-2200).

Nearby radio navigation aids

VOR radial/distance  VOR name  Freq  Var
CVEr017/8.7COWBOY VOR/DME116.2006E
TTTr042/13.8MAVERICK VOR/DME113.1006E
FUZr059/19.0RANGER VORTAC115.7006E

 
NDB name  Hdg/Dist  Freq  Var  ID
MESQUITE307/20.124803EPQF .--. --.- ..-.

Airport Services

Parking: tiedowns
Airframe service: MAJOR
Powerplant service: MAJOR

Runway Information

Runway 16/34

Dimensions: 3080 x 30 ft. / 939 x 9 m
Surface: asphalt, in poor condition
POTHOLES, EXTENSIVE CRACKING, LOOSE STONES & AGGREGATE ON ALL PVMNT SFCS. VEGETATION GROWING THROUGH PVMNT.
Runway edge markings: NSTD CNTRLN MKG INCORRECT SIZE & SPACING. RY NRS 25 FT TALL. MKGS FADED. RY NUMBER 34 NOT LOCATED AT RY END. DSPLCD THLD ARROWS YELLOW.
RUNWAY 16  RUNWAY 34
Traffic pattern: leftright
Displaced threshold: 300 ft.no
Markings: NSTD, in poor conditionNSTD, in poor condition
Obstructions: 30 ft. tree, 343 ft. from runway, 4:1 slope to clear
ROAD AT 58 FT; +4 FT FENCE AT 20 FT FM THLD ON EXTDD CNTRLN; 19 FT SIGN AT 124 FT FM THLD 70 FT EAST OF EXTDD CNTRLN.
23 ft. tree, 334 ft. from runway, 48 ft. left of centerline, 5:1 slope to clear
4 FT FENCE 0 FT DSTC 100 FT RIGHT. +15 FT RD 110 FT R.

Airport Ownership and Management from official FAA records

Ownership: Privately-owned
Owner: CROW BILLINGSLEY AIRPARK LTD
1722 ROUTH ST STE 707
DALLAS , TX 75201
Phone (214) 693-0513
Manager: BECKY ROWLAND
1722 ROUTH ST STE 707
DALLAS, TX 75201
Phone (214) 693-0513

Airport Operational Statistics

Aircraft based on the field: 63
Single engine airplanes: 60
Multi engine airplanes: 1
Helicopters: 1
Ultralights: 1
    
Aircraft operations: avg 57/week *
50% transient general aviation
50% local general aviation
* for 12-month period ending 31 December 2018

Additional Remarks

FOR CD CTC REGIONAL APCH AT 972-615-2799.
RWY 34 APCH, OBSTN LIGHT ON BLDG IS LOWER THAN OBSTRUCTIONS CLOSER TO RWY END.

Instrument Procedures

There are no published instrument procedures at F69.

Some nearby airports with instrument procedures:

KADS - Addison Airport (3 nm S)
KDAL - Dallas Love Field Airport (11 nm S)
KDFW - Dallas-Fort Worth International Airport (13 nm SW)
KTKI - McKinney National Airport (16 nm NE)
KRBD - Dallas Executive Airport (21 nm S)
 
Loc | Ops | Rwys | IFR | FBO | Links
Com | Nav | Svcs | Stats | Notes

City of Fort Worth
 
Area around F69 (Air Park-Dallas Airport)
 
Road maps at: MapQuest Bing Google
 
Aerial photo
WARNING: Photo may not be current or correct
Aerial photo of F69 (Air Park-Dallas Airport)
Photo by K. Bruggers

Do you have a better or more recent aerial photo of Air Park-Dallas Airport that you would like to share? If so, please send us your photo.

 
Sectional chart

 
Airport distance calculator
Flying to Air Park-Dallas Airport? Find the distance to fly.

From to F69

Sunrise and sunset
Times for 27-May-2022
 Local
(UTC-5)
 Zulu
(UTC)
Morning civil twilight05:5410:54
Sunrise06:2211:22
Sunset20:2701:27
Evening civil twilight20:5501:55

Current date and time
Zulu (UTC)  27-May-2022 13:12:10
Local (UTC-5)  27-May-2022 08:12:10
 
METAR
KADS 
4nm S 
271247Z 00000KT 10SM SKC 20/14 A3005
KDAL 
10nm S 
271253Z 00000KT 10SM CLR 19/15 A3004 RMK AO2 SLP166 T01940150
KDFW 
12nm SW 
271253Z 00000KT 10SM CLR 19/14 A3002 RMK AO2 SLP159 T01890144
KTKI 
16nm NE 
271253Z 02003KT 10SM CLR 16/13 A3005 RMK AO2 SLP174 T01560128
TAF
KDAL 
10nm S 
271120Z 2712/2812 VRB04KT P6SM SKC FM280000 15008KT P6SM SKC
KDFW 
12nm SW 
271120Z 2712/2818 VRB04KT P6SM SKC FM280000 15008KT P6SM SKC
NOTAMs
Click for the latest NOTAMs
NOTAMs are issued by the DoD/FAA and will open in a separate window not controlled by AirNav.

 

 
 

FBO, Fuel Providers, and Aircraft Ground Support

  
 Business Name 
 
 Contact 
 
 Services / Description 
 
Fuel Prices
 
Comments
  
 Sprynx Aviation
214-909-5999
[web site]
[email]
Aviation fuel, Aircraft parking (ramp or tiedown), Flight training, Aircraft rental, Aerial tours / aerial sightseeing, Aerial photography, Pilot supplies, ...

More info about Sprynx Aviation
100LL
AS $5.03 
 Updated 03-Mar-2022
 
   1 read write
AS=Assisted/Self Service
Update Fuel Prices
 

Would you like to see your business listed on this page?

 If your business provides an interesting product or service to pilots, flight crews, aircraft, or users of the Air Park-Dallas Airport, you should consider listing it here.  To start the listing process, click on the button below
 
Add a business
 

Other Pages about Air Park-Dallas Airport

Update a link
 
Copyright © AirNav, LLC. All rights reserved. Privacy Policy  Contact